DateTimeUTC,F1_A11,F1_S11,BsB_S11,BsG_S11,BsR_S11,BbsB_S11,BbsG_S11,BbsR_S11,BaB_A11,BaG_A11,BaR_A11,Tu_S11,T_S11,Uu_S11,U_S11,P_S11,T1_A11
2021-09-07T10:00:00Z,00000200,21000000,,,,,,,0000.16,0000.19,0000.15,17.9,24.8,00.6,00.4,0662.1,31.0
2021-09-07T10:01:00Z,00000200,21000000,,,,,,,-000.07,-000.08,-000.44,17.9,24.8,00.6,00.4,0662.1,31.0
2021-09-07T10:02:00Z,00000200,21000000,,,,,,,-000.02,-000.01,0000.29,18.0,24.8,00.6,00.4,0662.1,31.0
2021-09-07T10:03:00Z,00000200,61000000,,,,,,,-000.12,0000.01,-000.21,18.0,24.8,00.6,00.4,0662.1,31.0
2021-09-07T10:04:00Z,00000200,41000000,0001.58,0001.00,0000.51,0000.26,0000.14,0000.18,0000.41,0000.53,0000.54,18.3,24.7,00.8,00.6,0663.0,31.0
2021-09-07T10:05:00Z,00000200,01000000,0001.12,0000.99,0000.58,0000.70,0000.33,0000.49,0000.44,0000.03,-000.26,18.4,24.7,00.8,00.5,0663.0,31.0
2021-09-07T10:06:00Z,00000200,01000000,0001.01,0001.14,0000.71,0000.39,0000.22,0000.01,0000.38,0000.16,0000.69,18.3,24.6,00.9,00.6,0663.1,31.0
2021-09-07T10:07:00Z,00000200,01000000,0001.71,0000.77,0000.34,0001.35,0000.38,0000.20,0000.25,0000.69,-000.29,18.2,24.6,01.1,00.8,0663.2,31.0
2021-09-07T10:08:00Z,00000200,01000000,0001.01,0000.62,0000.79,0000.47,0000.21,0000.20,0000.11,-000.29,0000.29,18.2,24.6,00.9,00.6,0663.2,30.9
2021-09-07T10:09:00Z,00000200,01000000,0001.82,0000.92,0000.13,0001.31,0000.39,0000.10,-000.12,0000.34,0000.49,18.1,24.5,00.9,00.6,0663.2,31.0
2021-09-07T10:10:00Z,00000200,01000000,0001.44,0000.79,0000.51,0000.61,0000.20,0000.00,0000.62,0000.01,-000.00,18.1,24.5,01.0,00.7,0663.2,30.9
2021-09-07T10:11:00Z,00000200,01000000,0000.91,0001.09,0000.67,0000.55,0000.39,0000.25,0000.46,0000.69,0000.50,18.1,24.5,01.0,00.7,0663.2,30.9
2021-09-07T10:12:00Z,00000200,01000000,0001.72,0000.35,0000.47,0000.36,0000.23,0000.16,0000.55,0000.32,0000.19,18.1,24.5,01.2,00.8,0663.2,30.9
2021-09-07T10:13:00Z,00000200,01000000,0000.61,0000.54,0000.38,0000.90,0000.43,0000.23,0000.39,0000.40,0000.21,18.2,24.5,01.2,00.8,0663.2,31.0
2021-09-07T10:14:00Z,00000200,01000000,0001.53,0000.97,0000.36,0000.80,0000.37,0000.47,0000.32,0000.64,0000.60,18.3,24.6,01.2,00.8,0663.2,31.0
2021-09-07T10:15:00Z,00000200,01000000,0001.47,0000.62,0000.42,0001.38,0000.11,0000.20,0000.47,0000.29,0000.05,18.4,24.6,01.2,00.8,0663.2,31.0
2021-09-07T10:16:00Z,00000200,01000000,0001.56,0001.00,0000.70,0000.41,0000.30,0000.34,0000.35,0000.33,0000.25,18.5,24.7,01.3,00.9,0663.2,31.0
2021-09-07T10:17:00Z,00000200,01000000,0001.47,0000.89,0000.54,0000.86,0000.52,0000.13,0000.18,0000.06,0000.20,18.6,24.7,01.3,00.9,0663.2,31.0
2021-09-07T10:18:00Z,00000200,01000000,0001.18,0001.12,0000.35,0001.21,0000.37,0000.24,0000.10,0000.30,0000.30,18.6,24.8,01.3,00.9,0663.3,31.0
2021-09-07T10:19:00Z,00000200,01000000,0001.95,0001.25,0000.44,0001.04,0000.17,0000.23,-000.15,-000.04,-000.40,18.6,24.7,01.2,00.8,0663.3,31.0
2021-09-07T10:20:00Z,00000200,01000000,0001.06,0000.76,0000.58,0000.36,-000.05,0000.32,0000.65,0000.24,0000.44,18.5,24.7,01.3,00.9,0663.3,31.0
2021-09-07T10:21:00Z,00000200,01000000,0001.82,0000.69,0000.57,0000.46,0000.35,0000.29,-000.31,0000.26,-000.15,18.5,24.7,01.2,00.8,0663.3,31.0
2021-09-07T10:22:00Z,00000200,01000000,0000.97,0000.86,0000.58,0000.65,0000.32,0000.26,0000.38,-000.21,0000.50,18.4,24.7,01.1,00.8,0663.3,31.0
2021-09-07T10:23:00Z,00000200,01000000,0001.44,0000.94,0000.32,0000.48,0000.38,0000.33,0000.22,0000.36,-000.35,18.4,24.6,01.2,00.8,0663.3,31.0
2021-09-07T10:24:00Z,00000200,01000000,0000.91,0000.16,0000.79,0000.53,0000.21,0000.54,0000.05,0000.03,0000.41,18.3,24.6,01.1,00.8,0663.3,31.0
2021-09-07T10:25:00Z,00000200,01000000,0001.43,0001.26,0000.66,0000.63,0000.20,-000.03,0000.32,0000.01,0000.32,18.2,24.6,01.1,00.8,0663.3,31.0
2021-09-07T10:26:00Z,00000200,01000000,0001.54,0000.64,0000.34,0000.30,0000.26,0000.34,0000.42,0000.63,-000.01,18.2,24.6,01.2,00.8,0663.3,31.0
2021-09-07T10:27:00Z,00000200,01000000,0001.02,0000.92,0000.67,0001.23,0000.00,0000.27,0000.72,0000.27,0000.63,18.3,24.6,01.1,00.8,0663.2,31.0
2021-09-07T10:28:00Z,00000200,01000000,0001.60,0001.02,0000.74,0001.09,0000.25,-000.06,0000.23,0000.50,0000.04,18.4,24.6,01.1,00.7,0663.2,31.0
2021-09-07T10:29:00Z,00000200,01000000,0001.10,0000.95,0000.15,0000.94,0000.34,0000.27,0000.13,0000.01,0000.37,18.5,24.7,01.2,00.8,0663.2,31.0
2021-09-07T10:30:00Z,00000200,01000000,0001.50,0000.94,0000.42,0000.37,0000.44,0000.44,-000.03,0000.69,0000.27,18.5,24.7,01.2,00.9,0663.2,31.0
2021-09-07T10:31:00Z,00000200,01000000,0001.59,0001.35,0000.51,0001.07,0000.51,0000.18,0000.19,-000.45,0000.05,18.6,24.7,01.2,00.8,0663.2,31.0
2021-09-07T10:32:00Z,00000200,01000000,0001.38,0000.97,0000.47,0000.08,0000.24,0000.21,0000.22,0000.55,0000.24,18.6,24.7,01.0,00.7,0663.3,31.0
2021-09-07T10:33:00Z,00000200,01000000,0000.26,0001.12,0000.82,0000.37,0000.16,0000.21,0000.17,-000.11,-000.06,18.5,24.7,01.1,00.8,0663.3,31.0
2021-09-07T10:34:00Z,00000200,01000000,0001.19,0000.67,0000.54,0000.40,0000.26,0000.46,-000.11,0000.41,0000.19,18.5,24.7,01.1,00.7,0663.3,31.0
2021-09-07T10:35:00Z,00000200,01000000,0001.48,0000.90,0000.56,0000.07,0000.23,0000.44,0000.48,0000.33,0000.08,18.4,24.7,01.0,00.7,0663.3,31.0
2021-09-07T10:36:00Z,00000200,01000000,0001.20,0000.90,0000.59,0000.26,0000.34,0000.37,0000.06,0000.18,0000.06,18.4,24.6,01.0,00.7,0663.3,31.0
2021-09-07T10:37:00Z,00000200,01000000,0001.31,0000.76,0000.59,0000.81,0000.17,0000.33,0000.34,0000.06,-000.02,18.3,24.6,01.2,00.8,0663.3,31.0
2021-09-07T10:38:00Z,00000200,01000000,0001.50,0001.13,0000.42,0000.62,0000.07,0000.28,0000.59,0000.33,0000.44,18.3,24.6,01.2,00.8,0663.3,30.9
2021-09-07T10:39:00Z,00000200,01000000,0001.58,0001.33,0000.62,0000.90,0000.41,0000.09,0000.26,0000.20,0000.33,18.2,24.5,01.3,00.9,0663.3,30.9
2021-09-07T10:40:00Z,00000200,01000000,0001.16,0001.17,0000.31,0000.17,0000.21,0000.08,0000.42,0000.24,0000.39,18.2,24.5,01.2,00.8,0663.3,30.9
2021-09-07T10:41:00Z,00000200,01000000,0001.42,0000.91,0000.33,0000.13,0000.48,0000.06,0000.33,0000.36,-000.03,18.2,24.5,01.3,00.9,0663.3,30.9
2021-09-07T10:42:00Z,00000200,01000000,0001.35,0000.85,0000.63,0001.24,0000.15,0000.30,0000.23,0000.17,0000.33,18.2,24.5,01.3,00.9,0663.3,30.9
2021-09-07T10:43:00Z,00000200,01000000,0001.45,0001.11,0000.38,0000.88,0000.23,0000.38,-000.19,-000.16,-000.01,18.3,24.5,01.3,00.9,0663.3,31.0
2021-09-07T10:44:00Z,00000200,01000000,0001.11,0000.60,0000.57,0000.34,0000.25,0000.56,0000.44,0000.58,0000.10,18.3,24.6,01.3,00.9,0663.3,31.0
2021-09-07T10:45:00Z,00000200,01000000,0001.53,0000.75,0000.42,0000.68,-000.07,0000.25,0000.12,0000.35,-000.18,18.3,24.6,01.3,00.9,0663.3,31.0
2021-09-07T10:46:00Z,00000200,01000000,0001.43,0000.57,0000.55,-000.47,0000.37,0000.53,0000.23,-000.06,0000.27,18.3,24.6,01.3,00.9,0663.3,31.0
2021-09-07T10:47:00Z,00000200,01000000,0001.43,0001.02,0000.23,0000.78,0000.30,0000.28,0000.31,0000.19,0000.35,18.3,24.6,01.3,00.9,0663.3,31.0
2021-09-07T10:48:00Z,00000200,01000000,0001.05,0000.79,0000.71,0001.06,0000.06,0000.19,0000.05,0000.37,-000.05,18.3,24.5,01.3,00.9,0663.3,30.9
2021-09-07T10:49:00Z,00000200,01000000,0000.85,0000.93,0000.41,0001.02,0000.26,0000.01,-000.01,0000.12,0000.42,18.2,24.5,01.3,00.9,0663.3,30.9
2021-09-07T10:50:00Z,00000200,01000000,0001.48,0000.68,0000.57,0000.50,0000.24,0000.14,0000.50,0000.05,0000.35,18.2,24.5,01.3,00.9,0663.3,30.9
2021-09-07T10:51:00Z,00000200,01000000,0000.75,0000.98,0000.30,0000.91,0000.35,0000.06,0000.09,-000.01,-000.26,18.1,24.5,01.4,00.9,0663.3,31.0
2021-09-07T10:52:00Z,00000200,01000000,0001.05,0000.94,0000.53,0000.76,0000.61,-000.11,0000.42,0000.47,-000.00,18.1,24.4,01.3,00.9,0663.3,30.9
2021-09-07T10:53:00Z,00000200,01000000,0002.60,0001.25,0000.65,0000.79,0000.16,0000.34,0000.22,-000.04,0000.75,18.0,24.4,01.3,00.9,0663.3,30.9
2021-09-07T10:54:00Z,00000200,01000000,0001.54,0000.82,0000.46,0001.04,0000.42,0000.12,0000.18,0000.57,0000.06,18.0,24.4,01.3,00.9,0663.3,30.9
2021-09-07T10:55:00Z,00000200,01000000,0000.93,0001.17,0000.67,0000.60,0000.21,0000.55,0000.33,0000.16,0000.41,17.9,24.4,01.4,01.0,0663.3,30.9
2021-09-07T10:56:00Z,00000200,01000000,0001.41,0000.96,0000.47,0000.43,0000.29,0000.56,0000.64,0000.28,0000.03,17.9,24.3,01.3,00.9,0663.3,30.9
2021-09-07T10:57:00Z,00000200,41000000,,,,,,,-000.24,-000.29,0000.26,18.0,24.3,01.6,01.1,0663.3,30.9
2021-09-07T10:58:00Z,00000200,61000000,,,,,,,0000.41,0000.34,-000.03,17.8,24.5,01.2,00.8,0662.5,31.0
2021-09-07T10:59:00Z,00000200,21000000,,,,,,,0000.05,0000.38,-000.17,17.8,24.6,01.3,00.8,0662.5,31.0
